Regional Weather Roundup
Issued by NWS Glasgow, MT

Home | Current Version | Previous Version | Text Only | Print | Product List | Glossary On
Versions: 1 2 3 4 5 6 7 8 9 10 11 12 13 14 15 16 17 18 19 20 21 22 23 24 25 26 27
000
ASUS45 KGGW 201315
RWRGGW
HOURLY WEATHER ROUNDUP FOR NORTHEAST MONTANA
NATIONAL WEATHER SERVICE GLASGOW MONTANA
700 AM MDT SUN APR 20 2014

NOTE: "FAIR" INDICATES FEW OR NO CLOUDS BELOW 12,000 FEET WITH NO
SIGNIFICANT WEATHER AND/OR OBSTRUCTIONS TO VISISBILITY.

NORTHEAST MONTANA


CITY           SKY/WX    TMP DP  RH WIND       PRES   REMARKS
GLASGOW        MOCLDY    37  30  75 SW6       29.83R
PLENTYWOOD       N/A     39  30  70 E3          N/A
WOLF POINT     CLOUDY    36  30  79 E5        29.81F
JORDAN           N/A     47  28  47 W21       29.86R
WINNETT          N/A     51  29  42 W14G25      N/A
SIDNEY         CLOUDY    34  30  86 CALM      29.87S
GLENDIVE       MOCLDY    37  27  65 S3        29.86S
SCOBEY           N/A     36  27  70 CALM      29.80S

FORT PECK REPORTS


CITY           SKY/WX    TMP DP  RH WIND       PRES   REMARKS
FORT PECK        N/A     37  32  82 SW7         N/A
THE PINES        N/A     44  24  45 W5          N/A

SOUTHEAST MONTANA


CITY           SKY/WX    TMP DP  RH WIND       PRES   REMARKS
BILLINGS       CLOUDY    50  26  39 NW13      29.94R
MILES CITY     CLOUDY    43  33  68 SE7       29.85R
BAKER          PTCLDY    40  30  67 SE8       29.88S
LIVINGSTON     PTCLDY    44  28  53 NW15      30.04R

CENTRAL MONTANA


CITY           SKY/WX    TMP DP  RH WIND       PRES   REMARKS
HAVRE          PTCLDY    41  28  60 SW12      29.91R
LEWISTOWN      CLOUDY    45  25  45 W18G26    29.99R
GREAT FALLS    CLEAR     39  24  55 SW16      30.01R
CUT BANK       CLEAR     37  28  70 W21       29.93R
HELENA         MOCLDY    41  26  55 W5        30.09R
BUTTE          PTCLDY    35  25  66 NW3       30.12R
BOZEMAN        PTCLDY    38  27  64 N6        30.09R

WESTERN MONTANA


CITY           SKY/WX    TMP DP  RH WIND       PRES   REMARKS
MISSOULA       CLOUDY    44  25  47 W6        30.19R
KALISPELL      NOT AVBL

NORTH DAKOTA


CITY           SKY/WX    TMP DP  RH WIND       PRES   REMARKS
WILLISTON      MOCLDY    34  31  88 CALM      29.86S
DICKINSON      MOSUNNY   42  27  55 S12       29.87F
MINOT          SUNNY     36  31  82 CALM      29.90F
BISMARCK       SUNNY     36  32  85 NE7       29.96S

SOUTHERN SASKATCHEWAN


CITY           SKY/WX    TMP DP  RH WIND       PRES   REMARKS
REGINA         MOCLDY    34  30  86 E13       29.86F
ESTEVAN        CLOUDY    32  32 100 E12       29.87F
SWIFT CURRENT  PTCLDY    39  28  65 W13       29.78F




USA.gov is the U.S. government's official web portal to all federal, state and local government web resources and services.